map of TLH home
TLH - Airport
Location
City:  Tallahassee, Florida, United States
Name:Tallahassee International Airport
ICAO:KTLH
IATA:TLH
FAA LID:TLH

Details
Type:Airport (Part 139 Class I)
Use:Public/Civil
Latitude:3023'48"N (30.396750)
Longitude:8421'03"W (-84.350860)
Datum:WGS 1984
Elevation:83 ft (25 m)
Variation:4.73W (WMM2015 magnetic declination)
-0.10 annual change
Runways:2
Longest:8000 × 150 ft (2438 × 45.5 m), paved

Time
Time Zone:UTC-5 (DST-4)
Local Time:

Weather
METAR:KTLH 250153Z 17003KT 10SM CLR 19/19 A3012 RMK AO2 SLP199 T01940189
TAF:KTLH 242326Z 2500/2524 18004KT P6SM FEW040
FM250300 18003KT 4SM BR BKN008
FM250900 15003KT 2SM BR BKN002
FM251400 20011KT P6SM BKN035

Related Locations
Nearby:
Farthest:USL: 11326 mi / 18227 km
Useless Loop, WA, AU

Find:

   beyond  
but within

Other Information
Maps:
Delays:
NOTAMs:
Links:
Sources:

  
flag of United States
flag of Florida
  

Airport Diagram

Airport diagram for TLH

Airport diagram PDF

Sectional Chart

Flight Planning
at skyvector.com

Satellite Image

Google Maps Satellite view

 

Copyright © 2004-2018 Karl L. Swartz. All rights reserved.
The Great Circle Mapper name and logo are trademarks of the Great Circle Mapper.
All other trademarks mentioned herein belong to their respective owners.
Please see credits for attibutions and further copyright information.

  Follow gcmap on Facebook Follow gcmap on Twitter Follow gcmap on Google+ GCmap on LinkedIn

hCard Microformat

Geo Microformat